Location: Gleizolles
(44.4833°N, 6.7667°E)
Time: 00:03:50
(UTC+00:00)

Courier 1B Rocket - Pass Details

Date: 30 June 2024
Orbit: 920 x 1201 km, 28.3° (Epoch: 23 July)

Event Time Altitude Azimuth Distance (km) Brightness Sun altitude
Exits shadow 01:36:21 16° 167° (SSE) 2,274 6.5 -17.0°
Drops below altitude 10° 01:38:53 10° 145° (SE) 2,723 7.1 -16.8°
Sets 01:42:33 0° 127° (SE) 3,725 8.0 -16.5°
